カタログに戻る

SL-12 DEB

LostHEO
NORAD 34801·DEBRIS·🇷🇺 Russia

打ち上げ Apr 4, 1991 から Baikonur Cosmodrome

Loading…

次のパス (今後24時間)

TLE

古いSource: Space-Track

元期: Mar 29, 2011, 09:58 UTC

1 34801U 91025R   11088.41583846  .00002650  00000-0  92328-2 0  9999
2 34801  64.9061 239.2898 5645951   0.4157 349.9275  4.32246059 32095

AllMySatでSL-12 DEBをリアルタイム追跡

Download on the App Store